International Skating Union - Official Site

Essent ISU World Cup Moscow
November 22-23, 2008

Draw | Lap Times | Index | World Cup

Referee: Hannu  KOIVU  (FIN)
Starter: Victor  CHURSIN  (RUS)
StartTime: EndTime: Air Temp: Ice Temp: Humidity:
14:50 15:41 12 ℃ -5.7 ℃ 34%

Result 5000m Ladies Division A
Rankings as of Mar 5 2009 12:00AM
Rank: No.: Name: Nation: Time: Behind: Points:
1 19 Claudia  PECHSTEIN GER GER 6:49.92200m - 20.05 - (20.0)
600m - 51.43 - (31.3)
1000m - 1:23.03 - (31.6)
1400m - 1:55.08 - (32.0)
1800m - 2:27.45 - (32.3)
2200m - 2:59.99 - (32.5)
2600m - 3:32.76 - (32.7)
3000m - 4:05.57 - (32.8)
3400m - 4:38.30 - (32.7)
3800m - 5:11.13 - (32.8)
4200m - 5:44.06 - (32.9)
4600m - 6:17.13 - (33.0)
5000m - 6:49.92 - (32.7)
100
2 13 Martina  SABLIKOVA CZE CZE 6:57.18200m - 20.00 - (20.0)
600m - 51.94 - (31.9)
1000m - 1:24.31 - (32.3)
1400m - 1:56.75 - (32.4)
1800m - 2:29.11 - (32.3)
2200m - 3:01.98 - (32.8)
2600m - 3:34.68 - (32.7)
3000m - 4:07.93 - (33.2)
3400m - 4:41.37 - (33.4)
3800m - 5:15.08 - (33.7)
4200m - 5:48.71 - (33.6)
4600m - 6:22.88 - (34.1)
5000m - 6:57.18 - (34.3)
7,26 80
3 16 Stephanie  BECKERT GER GER 7:01.72200m - 21.15 - (21.1)
600m - 53.94 - (32.7)
1000m - 1:27.47 - (33.5)
1400m - 2:00.98 - (33.5)
1800m - 2:34.12 - (33.1)
2200m - 3:07.04 - (32.9)
2600m - 3:40.21 - (33.1)
3000m - 4:13.89 - (33.6)
3400m - 4:47.26 - (33.3)
3800m - 5:20.75 - (33.4)
4200m - 5:54.61 - (33.8)
4600m - 6:28.28 - (33.6)
5000m - 7:01.72 - (33.4)
11,80 70
4 3 Kristina  GROVES CAN CAN 7:03.86200m - 20.41 - (20.4)
600m - 51.73 - (31.3)
1000m - 1:24.04 - (32.3)
1400m - 1:56.67 - (32.6)
1800m - 2:29.50 - (32.8)
2200m - 3:02.66 - (33.1)
2600m - 3:36.02 - (33.3)
3000m - 4:09.52 - (33.5)
3400m - 4:43.37 - (33.8)
3800m - 5:17.59 - (34.2)
4200m - 5:52.47 - (34.8)
4600m - 6:27.87 - (35.4)
5000m - 7:03.86 - (36.0)
13,94 60
5 4 Clara  HUGHES CAN CAN 7:04.22200m - 21.01 - (21.0)
600m - 53.43 - (32.4)
1000m - 1:25.88 - (32.4)
1400m - 1:58.94 - (33.0)
1800m - 2:32.06 - (33.1)
2200m - 3:05.65 - (33.5)
2600m - 3:39.28 - (33.6)
3000m - 4:13.09 - (33.8)
3400m - 4:46.87 - (33.7)
3800m - 5:20.89 - (34.0)
4200m - 5:55.15 - (34.2)
4600m - 6:29.44 - (34.2)
5000m - 7:04.22 - (34.7)
14,30 50
6 15 Daniela  ANSCHÜTZ THOMS GER GER 7:06.02200m - 19.96 - (19.9)
600m - 51.42 - (31.4)
1000m - 1:24.13 - (32.7)
1400m - 1:56.64 - (32.5)
1800m - 2:29.36 - (32.7)
2200m - 3:02.14 - (32.7)
2600m - 3:35.38 - (33.2)
3000m - 4:08.95 - (33.5)
3400m - 4:42.99 - (34.0)
3800m - 5:16.95 - (33.9)
4200m - 5:51.66 - (34.7)
4600m - 6:27.85 - (36.1)
5000m - 7:06.02 - (38.1)
16,10 45
7 20 Masako  HOZUMI JPN JPN 7:06.87200m - 20.88 - (20.8)
600m - 52.65 - (31.7)
1000m - 1:25.76 - (33.1)
1400m - 1:58.91 - (33.1)
1800m - 2:32.39 - (33.4)
2200m - 3:05.91 - (33.5)
2600m - 3:39.47 - (33.5)
3000m - 4:13.17 - (33.7)
3400m - 4:47.48 - (34.3)
3800m - 5:22.29 - (34.8)
4200m - 5:57.12 - (34.8)
4600m - 6:32.05 - (34.9)
5000m - 7:06.87 - (34.8)
16,95 40
8 38 Maren  HAUGLI NOR NOR 7:08.63200m - 21.15 - (21.1)
600m - 54.62 - (33.4)
1000m - 1:28.76 - (34.1)
1400m - 2:03.20 - (34.4)
1800m - 2:37.05 - (33.8)
2200m - 3:10.62 - (33.5)
2600m - 3:44.33 - (33.7)
3000m - 4:18.33 - (34.0)
3400m - 4:52.17 - (33.8)
3800m - 5:26.10 - (33.9)
4200m - 6:00.05 - (33.9)
4600m - 6:34.34 - (34.2)
5000m - 7:08.63 - (34.2)
18,71 35
9 31 Gretha  SMIT NED NED 7:11.59200m - 21.45 - (21.4)
600m - 53.75 - (32.3)
1000m - 1:26.95 - (33.2)
1400m - 2:00.19 - (33.2)
1800m - 2:33.40 - (33.2)
2200m - 3:06.77 - (33.3)
2600m - 3:40.47 - (33.7)
3000m - 4:14.59 - (34.1)
3400m - 4:49.07 - (34.4)
3800m - 5:23.70 - (34.6)
4200m - 5:59.03 - (35.3)
4600m - 6:34.99 - (35.9)
5000m - 7:11.59 - (36.6)
21,67 30
10 5 Christine  NESBITT CAN CAN 7:17.62200m - 20.57 - (20.5)
600m - 54.44 - (33.8)
1000m - 1:28.92 - (34.4)
1400m - 2:02.60 - (33.6)
1800m - 2:36.40 - (33.8)
2200m - 3:10.15 - (33.7)
2600m - 3:44.24 - (34.0)
3000m - 4:18.12 - (33.8)
3400m - 4:52.40 - (34.2)
3800m - 5:27.13 - (34.7)
4200m - 6:02.68 - (35.5)
4600m - 6:39.56 - (36.8)
5000m - 7:17.62 - (38.0)
27,70 25
11 7 Brittany  SCHUSSLER CAN CAN 7:18.32200m - 21.44 - (21.4)
600m - 54.36 - (32.9)
1000m - 1:28.00 - (33.6)
1400m - 2:02.03 - (34.0)
1800m - 2:35.74 - (33.7)
2200m - 3:10.09 - (34.3)
2600m - 3:44.47 - (34.3)
3000m - 4:19.22 - (34.7)
3400m - 4:54.75 - (35.5)
3800m - 5:30.36 - (35.6)
4200m - 6:06.27 - (35.9)
4600m - 6:42.29 - (36.0)
5000m - 7:18.32 - (36.0)
28,40 20
12 39 Katarzyna  WOJCICKA POL POL 7:22.16200m - 20.56 - (20.5)
600m - 53.18 - (32.6)
1000m - 1:25.97 - (32.7)
1400m - 1:59.55 - (33.5)
1800m - 2:32.66 - (33.1)
2200m - 3:06.80 - (34.1)
2600m - 3:41.07 - (34.2)
3000m - 4:16.58 - (35.5)
3400m - 4:53.14 - (36.5)
3800m - 5:29.85 - (36.7)
4200m - 6:07.29 - (37.4)
4600m - 6:44.99 - (37.7)
5000m - 7:22.16 - (37.1)
32,24 15